Regional Weather Roundup
Issued by NWS

Home | Current Version | Previous Version | Text Only | Print | Product List | Glossary Off
Versions: 1 2 3 4 5 6 7 8 9 10 11 12 13 14 15 16 17 18 19 20 21 22 23 24 25 26 27 28 29 30 31 32 33 34 35 36 37 38 39 40 41 42 43 44 45 46 47 48 49 50

000
ASUS43 KLOT 280706
RWRIL

ILLINOIS REGIONAL WEATHER ROUNDUP
NATIONAL WEATHER SERVICE CHICAGO/ROMEOVILLE IL
200 AM CDT THU AUG 28 2014

NOTE: "FAIR" INDICATES FEW OR NO CLOUDS BELOW 12,000 FEET WITH NO
SIGNIFICANT WEATHER AND/OR OBSTRUCTIONS TO VISIBILITY.

* THESE STATIONS ARE NOT UNDER NWS QUALITY CONTROL. THEY ALSO MAY NOT
  REPORT WEATHER SUCH AS PRECIPITATION OR FOG.

ILZ001-002-007-009-015-016-024-280800-
NORTHWEST ILLINOIS

CITY           SKY/WX    TMP DP  RH WIND       PRES   REMARKS
MOLINE         PTCLDY    67  62  84 E5        30.10F
STERLING*      PTCLDY    63  61  94 NE6       30.13S
SAVANNA*       PTCLDY    65  62  90 E3        30.13S
$$

ILZ003-004-008-010-011-017-018-280800-
NORTH CENTRAL ILLINOIS

CITY           SKY/WX    TMP DP  RH WIND       PRES   REMARKS
ROCKFORD       CLOUDY    65  62  90 E5        30.16S
FREEPORT*      CLOUDY    63  61  94 CALM      30.16F
ROCHELLE*      PTCLDY    63  61  93 E5        30.14F
DE KALB*       CLOUDY    61  60  96 NE3       30.16S
PERU*          CLEAR     65  62  91 E6        30.13R
$$

ILZ005-006-012>014-019>023-280800-
NORTHEAST ILLINOIS

CITY           SKY/WX    TMP DP  RH WIND       PRES   REMARKS
CHICAGO-OHARE  MOCLDY    68  58  70 NE3       30.14R
CHICAGO-MIDWAY MOCLDY    71  59  65 E5        30.13S
AURORA         PTCLDY    61  59  93 N3        30.14F
LANSING*       CLOUDY    63  61  94 CALM      30.14S
JOLIET*        CLEAR     64  60  89 CALM      30.14F
WAUKEGAN       CLEAR     59  57  93 CALM      30.14S
DUPAGE AIRPORT CLOUDY    65  61  87 CALM      30.14S
KANKAKEE*      CLEAR     63  60  91 NE5       30.12F
WHEELING       CLOUDY    67  61  81 CALM      30.16R
MORRIS*        CLEAR     63  63 100 CALM      30.12S
ROMEOVILLE*    CLEAR     64  62  95 NE5       30.13F
NORTHERLY ISL    N/A     70  59  68 NE12        N/A
$$

LMZ740>746-280800-
SOUTHERN LAKE MICHIGAN

STATION/POSITION SKY/WX   TEMP    WIND        PRES    VSBY  WAVE
                          AIR SEA DIR/SP/G                  HT/PER
                          (F)     (DEG/KT/KT) (MB)    (MI)  (FT/S)
SOUTHERN BUOY              67 69   50/ 12/ 14 1020.7R         1/ 3
WAUKEGAN HARBOR            69      60/ 10/ 12   N/A
HARRISON CRIB              70      70/ 13/ 14   N/A
BURNHAM HARBOR             70      70/ 11/ 12   N/A
CALUMET HARBOR             70      40/  8/ 12 1019.1R
MICHIGAN CITY              66      60/  9/ 12   N/A
MICHIGAN CITY 6N           69 73   70/ 10/ 16   N/A           3/ 4
ST. JOSEPH                 66 72   60/ 10/ 14   N/A           2/ 4
$$

ILZ025>027-034>036-040-047-049-050-058-095>099-280800-
WEST-CENTRAL ILLINOIS

CITY           SKY/WX    TMP DP  RH WIND       PRES   REMARKS
QUINCY         MOCLDY    73  69  87 CALM      30.05F
GALESBURG*     CLOUDY    68  65  88 E3        30.09S
MACOMB*        CLOUDY    70  68  95 NE3       30.09F
JACKSONVILLE*  PTCLDY    73  72  97 CALM      30.07F FOG
PITTSFIELD*    PTCLDY    72  69  89 NE3       30.07F
$$

ILZ028>032-037-038-041>044-048-051>054-059>061-280800-
CENTRAL ILLINOIS

CITY           SKY/WX    TMP DP  RH WIND       PRES   REMARKS
PONTIAC        MOCLDY    66  63  88 E3        30.11S
DECATUR        CLOUDY    70  68  93 NE6       30.09S
PEORIA         MOCLDY    72  61  68 E10       30.09S
LACON*         MOCLDY    66  62  86 E8        30.10S
LINCOLN*       CLOUDY    70  66  85 NE5       30.05F
SPRINGFIELD    CLOUDY    73  70  90 E6        30.07S
TAYLORVILLE    MOCLDY    72  70  94 E3        30.07R
$$

ILZ033-039-045-046-055>057-062-063-280800-
EAST-CENTRAL ILLINOIS

CITY           SKY/WX    TMP DP  RH WIND       PRES   REMARKS
CHAMPAIGN      MOCLDY    67  62  84 NE8       30.09S
DANVILLE*      CLEAR     64  61  91 NE5       30.07S
RANTOUL*       PTCLDY    67  60  79 NE6       30.11S
MATTOON        CLOUDY    71  69  93 CALM      30.08R
PARIS*         CLEAR     67  66  96 NE5       30.08F
$$

ILZ079-100>102-280800-
SOUTHWEST ILLINOIS

CITY           SKY/WX    TMP DP  RH WIND       PRES   REMARKS
BELLEVILLE     MOCLDY    71  71 100 CALM      30.04F
SPARTA*        CLOUDY    71  71  98 CALM      30.06S
$$

ILZ064>066-069>071-074>076-080>082-084>086-088>090-092>094-280800-
SOUTH-CENTRAL ILLINOIS

CITY           SKY/WX    TMP DP  RH WIND       PRES   REMARKS
CARBONDALE     MOCLDY    73  70  90 CALM      30.04F
CAIRO*         PTCLDY    76  72  87 CALM      30.03F
EFFINGHAM*     RAIN      71  68  91 CALM      30.07S
MARION         MOCLDY    75  72  88 CALM      30.05F
MT. VERNON       N/A     72  66  83 CALM      30.05F
CENTRALIA*     MOCLDY    72  70  94 N3        30.05S
SALEM*         MOCLDY    74  73  96 CALM      30.06S
METROPOLIS*    MOCLDY    76  72  88 CALM      30.03S
$$

ILZ067-068-072-073-078-083-087-091-280800-
SOUTHEAST ILLINOIS

CITY           SKY/WX    TMP DP  RH WIND       PRES   REMARKS
LAWRENCEVILLE  PTCLDY    73  71  93 CALM      30.05S
FLORA*         PTCLDY    72  70  95 N3        30.06S
FAIRFIELD*     MOCLDY    73  72  94 N3        30.04F
HARRISBURG*    MOCLDY    72  72  99 CALM      30.05F
ROBINSON*      PTCLDY    71  70  98 CALM      30.07S FOG
CARMI*           N/A     74  73  95 NW3       30.03F
$$

ABBREVIATIONS USED IN REMARKS
   TC - TEMPERATURE IN CELSIUS
  WCI - WIND CHILL INDEX
   HX - HEAT INDEX
  VSB - VISIBILITY
$$



USA.gov is the U.S. government's official web portal to all federal, state and local government web resources and services.